Time,TemperatureF,DewpointF,PressureIn,WindDirection,WindDirectionDegrees,WindSpeedMPH,WindSpeedGustMPH,Humidity,HourlyPrecipIn,Conditions,Clouds,dailyrainin,SoftwareType,DateUTC
2013-01-29 00:00:00,34.2,33.7,29.03,West,261,0.0,0.0,98,0.00,,,0.00,VWS V14.00,2013-01-29 05:00:00,
2013-01-29 00:01:00,34.2,33.7,29.03,West,261,0.0,0.0,98,0.00,,,0.00,VWS V14.00,2013-01-29 05:01:00,
2013-01-29 00:03:00,34.2,33.7,29.03,West,261,0.0,0.0,98,0.00,,,0.00,VWS V14.00,2013-01-29 05:03:00,
2013-01-29 00:08:00,34.0,33.5,29.03,West,261,0.0,0.0,98,0.00,,,0.00,VWS V14.00,2013-01-29 05:08:00,
2013-01-29 00:13:00,34.0,33.5,29.03,West,261,0.0,0.0,98,0.00,,,0.00,VWS V14.00,2013-01-29 05:13:00,
2013-01-29 00:18:00,34.0,33.5,29.03,West,261,0.0,0.0,98,0.00,,,0.00,VWS V14.00,2013-01-29 05:18:00,
2013-01-29 00:23:00,34.0,33.5,29.03,West,261,0.0,0.0,98,0.00,,,0.00,VWS V14.00,2013-01-29 05:23:00,
2013-01-29 00:28:00,34.0,33.5,29.03,West,261,0.0,0.0,98,0.00,,,0.00,VWS V14.00,2013-01-29 05:28:00,
2013-01-29 00:33:00,34.0,33.5,29.03,West,261,0.0,0.0,98,0.00,,,0.00,VWS V14.00,2013-01-29 05:33:00,
2013-01-29 00:38:00,34.0,33.5,29.03,West,261,0.0,0.0,98,0.00,,,0.00,VWS V14.00,2013-01-29 05:38:00,
2013-01-29 00:43:00,33.8,33.3,29.03,West,261,0.0,0.0,98,0.00,,,0.00,VWS V14.00,2013-01-29 05:43:00,
2013-01-29 00:48:00,33.8,33.3,29.03,West,261,0.0,0.0,98,0.00,,,0.00,VWS V14.00,2013-01-29 05:48:00,
2013-01-29 00:53:00,33.8,33.3,29.03,West,261,0.0,0.0,98,0.00,,,0.00,VWS V14.00,2013-01-29 05:53:00,
2013-01-29 00:58:00,34.0,33.5,29.03,West,261,0.0,0.0,98,0.00,,,0.00,VWS V14.00,2013-01-29 05:58:00,
2013-01-29 01:03:00,34.0,33.5,29.03,West,261,0.0,0.0,98,0.00,,,0.00,VWS V14.00,2013-01-29 06:03:00,
2013-01-29 01:08:00,34.0,33.5,29.03,West,261,0.0,0.0,98,0.00,,,0.00,VWS V14.00,2013-01-29 06:08:00,
2013-01-29 01:13:00,34.0,33.5,29.03,West,261,0.0,0.0,98,0.00,,,0.00,VWS V14.00,2013-01-29 06:13:00,
2013-01-29 01:18:00,34.0,33.5,29.03,West,261,0.0,0.0,98,0.00,,,0.00,VWS V14.00,2013-01-29 06:18:00,
2013-01-29 01:23:00,34.0,33.5,29.03,West,261,0.0,0.0,98,0.00,,,0.00,VWS V14.00,2013-01-29 06:23:00,
2013-01-29 01:28:00,34.0,33.5,29.03,West,261,0.0,0.0,98,0.00,,,0.00,VWS V14.00,2013-01-29 06:28:00,
2013-01-29 01:33:00,34.0,33.5,29.03,SSE,166,3.6,3.6,98,0.00,,,0.00,VWS V14.00,2013-01-29 06:33:00,
2013-01-29 01:38:00,34.2,33.7,29.03,SSE,166,0.0,3.6,98,0.00,,,0.00,VWS V14.00,2013-01-29 06:38:00,
2013-01-29 01:43:00,34.2,33.7,29.03,SSE,166,0.0,3.6,98,0.00,,,0.00,VWS V14.00,2013-01-29 06:43:00,
2013-01-29 01:48:00,34.2,33.7,29.03,SSE,162,3.6,5.4,98,0.00,,,0.00,VWS V14.00,2013-01-29 06:48:00,
2013-01-29 01:53:00,34.2,33.7,29.00,SE,137,3.6,5.4,98,0.00,,,0.00,VWS V14.00,2013-01-29 06:53:00,
2013-01-29 01:58:00,34.2,33.7,29.00,SE,127,2.7,5.8,98,0.00,,,0.00,VWS V14.00,2013-01-29 06:58:00,
2013-01-29 02:03:00,34.2,33.7,29.00,SE,127,0.0,3.1,98,0.00,,,0.00,VWS V14.00,2013-01-29 07:03:00,
2013-01-29 02:08:00,34.2,33.7,29.00,SE,127,3.1,4.0,98,0.00,,,0.00,VWS V14.00,2013-01-29 07:08:00,
2013-01-29 02:13:00,34.2,33.7,29.00,SE,128,5.8,5.8,98,0.00,,,0.00,VWS V14.00,2013-01-29 07:13:00,
2013-01-29 02:18:00,34.2,33.7,29.00,SE,128,4.0,5.8,98,0.00,,,0.00,VWS V14.00,2013-01-29 07:18:00,
2013-01-29 02:23:00,34.2,33.7,29.00,SE,128,0.0,5.8,98,0.00,,,0.00,VWS V14.00,2013-01-29 07:23:00,
2013-01-29 02:28:00,34.2,33.7,29.00,SE,128,0.0,5.8,98,0.00,,,0.00,VWS V14.00,2013-01-29 07:28:00,
2013-01-29 02:33:00,34.3,33.8,29.00,SE,128,4.0,4.0,98,0.00,,,0.00,VWS V14.00,2013-01-29 07:33:00,
2013-01-29 02:38:00,34.3,33.8,29.00,SE,128,4.9,4.9,98,0.00,,,0.00,VWS V14.00,2013-01-29 07:38:00,
2013-01-29 02:43:00,34.3,33.8,29.00,SE,128,2.7,5.4,98,0.00,,,0.00,VWS V14.00,2013-01-29 07:43:00,
2013-01-29 02:48:00,34.3,33.8,29.00,SE,128,2.7,5.4,98,0.00,,,0.00,VWS V14.00,2013-01-29 07:48:00,
2013-01-29 02:54:00,34.3,33.8,29.00,SE,128,4.0,5.4,98,0.00,,,0.00,VWS V14.00,2013-01-29 07:54:00,
2013-01-29 02:59:00,34.3,33.8,29.00,SE,128,8.1,8.1,98,0.00,,,0.00,VWS V14.00,2013-01-29 07:59:00,
2013-01-29 03:04:00,34.3,33.8,29.00,SE,128,3.1,5.4,98,0.00,,,0.00,VWS V14.00,2013-01-29 08:04:00,
2013-01-29 03:09:00,34.3,33.8,29.00,SE,128,5.4,5.4,98,0.00,,,0.00,VWS V14.00,2013-01-29 08:09:00,
2013-01-29 03:14:00,34.3,33.8,29.00,SE,128,3.1,5.4,98,0.00,,,0.00,VWS V14.00,2013-01-29 08:14:00,
2013-01-29 03:19:00,34.5,34.0,29.00,SE,128,3.1,5.4,98,0.00,,,0.00,VWS V14.00,2013-01-29 08:19:00,
2013-01-29 03:24:00,34.3,33.8,29.00,SE,128,0.0,5.4,98,0.00,,,0.00,VWS V14.00,2013-01-29 08:24:00,
2013-01-29 03:29:00,34.3,33.8,29.00,SE,128,2.7,5.4,98,0.00,,,0.00,VWS V14.00,2013-01-29 08:29:00,
2013-01-29 03:34:00,34.5,34.0,29.00,SE,128,4.0,5.8,98,0.00,,,0.00,VWS V14.00,2013-01-29 08:34:00,
2013-01-29 03:39:00,34.5,34.0,29.00,SE,128,4.0,5.8,98,0.00,,,0.00,VWS V14.00,2013-01-29 08:39:00,
2013-01-29 03:44:00,34.5,34.0,29.00,SE,128,0.0,5.8,98,0.00,,,0.00,VWS V14.00,2013-01-29 08:44:00,
2013-01-29 03:49:00,34.5,34.0,29.00,SE,128,3.6,5.8,98,0.00,,,0.00,VWS V14.00,2013-01-29 08:49:00,
2013-01-29 03:54:00,34.5,34.0,28.97,SE,128,5.4,6.3,98,0.00,,,0.00,VWS V14.00,2013-01-29 08:54:00,
2013-01-29 03:59:00,34.5,34.0,28.97,SE,128,4.0,6.3,98,0.00,,,0.00,VWS V14.00,2013-01-29 08:59:00,
2013-01-29 04:04:00,34.5,34.0,28.97,SE,128,3.1,6.3,98,0.00,,,0.00,VWS V14.00,2013-01-29 09:04:00,
2013-01-29 04:09:00,34.5,34.0,28.97,SE,127,6.7,6.7,98,0.00,,,0.00,VWS V14.00,2013-01-29 09:09:00,
2013-01-29 04:14:00,34.5,34.0,28.97,SE,136,3.6,8.7,98,0.00,,,0.00,VWS V14.00,2013-01-29 09:14:00,
2013-01-29 04:19:00,34.7,34.2,28.97,SE,127,6.7,8.7,98,0.00,,,0.00,VWS V14.00,2013-01-29 09:19:00,
2013-01-29 04:24:00,34.7,34.2,28.94,SE,130,3.6,8.7,98,0.00,,,0.00,VWS V14.00,2013-01-29 09:24:00,
2013-01-29 04:29:00,34.9,34.4,28.94,SE,131,5.4,8.7,98,0.00,,,0.00,VWS V14.00,2013-01-29 09:29:00,
2013-01-29 04:34:00,34.7,34.2,28.94,SE,131,3.6,5.4,98,0.00,,,0.00,VWS V14.00,2013-01-29 09:34:00,
2013-01-29 04:39:00,34.9,34.4,28.94,SE,143,2.7,5.8,98,0.00,,,0.00,VWS V14.00,2013-01-29 09:39:00,
2013-01-29 04:44:00,34.9,34.4,28.94,ESE,119,4.9,6.3,98,0.00,,,0.00,VWS V14.00,2013-01-29 09:44:00,
2013-01-29 04:49:00,35.1,34.5,28.94,SE,127,6.3,6.3,98,0.00,,,0.00,VWS V14.00,2013-01-29 09:49:00,
2013-01-29 04:54:00,35.1,34.5,28.94,ESE,123,8.3,10.1,98,0.00,,,0.00,VWS V14.00,2013-01-29 09:54:00,
2013-01-29 04:59:00,35.1,34.5,28.94,ESE,122,8.3,11.0,98,0.00,,,0.00,VWS V14.00,2013-01-29 09:59:00,
2013-01-29 05:04:00,35.1,34.5,28.94,SE,127,3.1,11.4,98,0.00,,,0.00,VWS V14.00,2013-01-29 10:04:00,
2013-01-29 05:09:00,35.1,34.5,28.91,ESE,114,4.0,11.4,98,0.00,,,0.00,VWS V14.00,2013-01-29 10:09:00,
2013-01-29 05:14:00,35.2,34.7,28.91,SE,141,4.0,11.4,98,0.00,,,0.00,VWS V14.00,2013-01-29 10:14:00,
2013-01-29 05:19:00,35.6,35.1,28.91,SE,143,2.7,11.4,98,0.00,,,0.00,VWS V14.00,2013-01-29 10:19:00,
2013-01-29 05:24:00,35.6,35.1,28.91,ESE,102,4.0,11.4,98,0.00,,,0.00,VWS V14.00,2013-01-29 10:24:00,
2013-01-29 05:29:00,35.6,35.1,28.91,SSE,152,8.1,11.4,98,0.00,,,0.00,VWS V14.00,2013-01-29 10:29:00,
2013-01-29 05:34:00,35.4,34.9,28.91,SE,124,3.1,5.4,98,0.00,,,0.00,VWS V14.00,2013-01-29 10:34:00,
2013-01-29 05:39:00,35.4,34.9,28.91,ESE,108,4.0,9.6,98,0.00,,,0.00,VWS V14.00,2013-01-29 10:39:00,
2013-01-29 05:44:00,35.4,34.9,28.91,SE,125,0.0,9.6,98,0.00,,,0.00,VWS V14.00,2013-01-29 10:44:00,
2013-01-29 05:49:00,35.4,34.9,28.91,SE,125,0.0,9.6,98,0.00,,,0.00,VWS V14.00,2013-01-29 10:49:00,
2013-01-29 05:54:00,35.4,34.9,28.91,East,92,0.0,9.6,98,0.00,,,0.00,VWS V14.00,2013-01-29 10:54:00,
2013-01-29 05:59:00,35.4,34.9,28.91,East,100,2.2,9.6,98,0.00,,,0.00,VWS V14.00,2013-01-29 10:59:00,
2013-01-29 06:04:00,35.2,34.7,28.91,ESE,109,3.1,4.0,98,0.00,,,0.00,VWS V14.00,2013-01-29 11:04:00,
2013-01-29 06:09:00,35.2,34.7,28.91,ESE,117,3.6,9.6,98,0.00,,,0.00,VWS V14.00,2013-01-29 11:09:00,
2013-01-29 06:14:00,35.2,34.7,28.91,SE,133,8.1,9.6,98,0.00,,,0.00,VWS V14.00,2013-01-29 11:14:00,
2013-01-29 06:19:00,35.2,34.7,28.91,ESE,120,0.0,9.6,98,0.00,,,0.00,VWS V14.00,2013-01-29 11:19:00,
2013-01-29 06:24:00,35.2,34.7,28.88,SE,132,6.3,9.6,98,0.00,,,0.00,VWS V14.00,2013-01-29 11:24:00,
2013-01-29 06:29:00,35.4,34.9,28.88,SE,145,8.3,9.6,98,0.00,,,0.00,VWS V14.00,2013-01-29 11:29:00,
2013-01-29 06:34:00,35.4,34.9,28.88,ESE,105,3.6,8.7,98,0.00,,,0.00,VWS V14.00,2013-01-29 11:34:00,
2013-01-29 06:39:00,35.4,34.9,28.88,ESE,122,3.6,8.7,98,0.00,,,0.00,VWS V14.00,2013-01-29 11:39:00,
2013-01-29 06:44:00,35.4,34.9,28.88,ESE,122,6.3,8.7,98,0.00,,,0.00,VWS V14.00,2013-01-29 11:44:00,
2013-01-29 06:49:00,35.4,34.9,28.88,SSE,151,3.1,8.7,98,0.00,,,0.00,VWS V14.00,2013-01-29 11:49:00,
2013-01-29 06:54:00,35.6,35.1,28.88,ESE,104,5.8,8.7,98,0.00,,,0.00,VWS V14.00,2013-01-29 11:54:00,
2013-01-29 06:59:00,35.6,35.1,28.88,ESE,115,5.4,8.7,98,0.00,,,0.00,VWS V14.00,2013-01-29 11:59:00,
2013-01-29 07:04:00,35.6,35.1,28.88,ESE,120,3.6,6.3,98,0.00,,,0.00,VWS V14.00,2013-01-29 12:04:00,
2013-01-29 07:09:00,35.6,35.1,28.88,ESE,115,5.4,6.3,98,0.00,,,0.00,VWS V14.00,2013-01-29 12:09:00,
2013-01-29 07:14:00,35.8,35.3,28.88,ESE,121,4.0,6.7,98,0.00,,,0.00,VWS V14.00,2013-01-29 12:14:00,
2013-01-29 07:19:00,35.8,35.3,28.88,SE,142,4.9,7.2,98,0.00,,,0.00,VWS V14.00,2013-01-29 12:19:00,
2013-01-29 07:24:00,35.8,35.3,28.85,SSE,149,5.4,8.1,98,0.00,,,0.00,VWS V14.00,2013-01-29 12:24:00,
2013-01-29 07:29:00,35.8,35.3,28.85,South,179,3.6,8.1,98,0.00,,,0.00,VWS V14.00,2013-01-29 12:29:00,
2013-01-29 07:34:00,35.8,35.3,28.85,SE,143,3.1,8.1,98,0.00,,,0.00,VWS V14.00,2013-01-29 12:34:00,
2013-01-29 07:39:00,35.8,35.3,28.85,SE,138,4.9,8.1,98,0.00,,,0.00,VWS V14.00,2013-01-29 12:39:00,
2013-01-29 07:44:00,36.1,35.6,28.85,SE,133,4.0,8.1,98,0.00,,,0.00,VWS V14.00,2013-01-29 12:44:00,
2013-01-29 07:49:00,36.1,35.6,28.85,ESE,114,4.0,8.1,98,0.00,,,0.00,VWS V14.00,2013-01-29 12:49:00,
2013-01-29 07:54:00,36.3,35.8,28.85,SE,129,0.0,8.1,98,0.00,,,0.00,VWS V14.00,2013-01-29 12:54:00,
2013-01-29 07:59:00,36.3,35.8,28.85,SE,129,0.0,8.1,98,0.00,,,0.00,VWS V14.00,2013-01-29 12:59:00,
2013-01-29 08:04:00,36.3,35.8,28.85,SE,129,2.7,4.0,98,0.00,,,0.00,VWS V14.00,2013-01-29 13:04:00,
2013-01-29 08:09:00,36.5,36.0,28.85,SE,129,2.7,4.0,98,0.00,,,0.00,VWS V14.00,2013-01-29 13:09:00,
2013-01-29 08:14:00,36.5,36.0,28.85,SE,129,2.2,5.4,98,0.00,,,0.00,VWS V14.00,2013-01-29 13:14:00,
2013-01-29 08:19:00,36.7,36.2,28.85,SE,129,0.0,5.4,98,0.00,,,0.00,VWS V14.00,2013-01-29 13:19:00,
2013-01-29 08:24:00,36.7,36.2,28.85,SE,129,0.0,5.4,98,0.00,,,0.00,VWS V14.00,2013-01-29 13:24:00,
2013-01-29 08:29:00,36.5,36.0,28.85,SE,129,0.0,5.4,98,0.00,,,0.00,VWS V14.00,2013-01-29 13:29:00,
2013-01-29 08:34:00,36.5,36.0,28.85,SE,129,0.0,0.0,98,0.00,,,0.00,VWS V14.00,2013-01-29 13:34:00,
2013-01-29 08:39:00,36.7,36.2,28.85,SE,135,0.0,4.0,98,0.00,,,0.00,VWS V14.00,2013-01-29 13:39:00,
2013-01-29 08:44:00,36.7,36.2,28.85,SE,128,0.0,4.0,98,0.00,,,0.00,VWS V14.00,2013-01-29 13:44:00,
2013-01-29 08:49:00,36.9,36.3,28.85,SE,130,2.2,4.0,98,0.00,,,0.00,VWS V14.00,2013-01-29 13:49:00,
2013-01-29 08:54:00,37.0,36.5,28.85,SE,130,2.2,4.0,98,0.00,,,0.00,VWS V14.00,2013-01-29 13:54:00,
2013-01-29 08:59:00,37.0,36.5,28.85,SE,130,0.0,4.0,98,0.00,,,0.00,VWS V14.00,2013-01-29 13:59:00,
2013-01-29 09:04:00,37.4,36.9,28.85,SE,130,0.0,3.6,98,0.00,,,0.00,VWS V14.00,2013-01-29 14:04:00,
2013-01-29 09:09:00,37.6,37.1,28.85,SSE,158,0.0,3.6,98,0.00,,,0.00,VWS V14.00,2013-01-29 14:09:00,
2013-01-29 09:14:00,38.1,37.6,28.85,SW,227,2.7,4.9,98,0.00,,,0.00,VWS V14.00,2013-01-29 14:14:00,
2013-01-29 09:19:00,38.5,38.0,28.85,South,173,0.0,4.9,98,0.00,,,0.00,VWS V14.00,2013-01-29 14:19:00,
2013-01-29 09:24:00,38.8,38.3,28.85,South,173,2.2,4.9,98,0.00,,,0.00,VWS V14.00,2013-01-29 14:24:00,
2013-01-29 09:29:00,39.0,38.5,28.85,South,172,0.0,4.9,98,0.00,,,0.00,VWS V14.00,2013-01-29 14:29:00,
2013-01-29 09:34:00,39.2,38.7,28.85,South,169,0.0,3.6,98,0.00,,,0.00,VWS V14.00,2013-01-29 14:34:00,
2013-01-29 09:39:00,39.4,38.9,28.82,South,169,0.0,3.6,98,0.00,,,0.00,VWS V14.00,2013-01-29 14:39:00,
2013-01-29 09:44:00,39.7,39.2,28.82,SSE,161,2.7,5.4,98,0.00,,,0.00,VWS V14.00,2013-01-29 14:44:00,
2013-01-29 09:49:00,39.9,39.4,28.82,SSE,159,3.1,5.4,98,0.00,,,0.00,VWS V14.00,2013-01-29 14:49:00,
2013-01-29 09:54:00,40.3,39.8,28.82,South,177,3.6,6.3,98,0.00,,,0.00,VWS V14.00,2013-01-29 14:54:00,
2013-01-29 09:59:00,40.6,40.1,28.82,SSE,157,5.4,6.3,98,0.00,,,0.00,VWS V14.00,2013-01-29 14:59:00,
2013-01-29 10:04:00,40.8,40.3,28.82,South,185,2.7,4.9,98,0.00,,,0.00,VWS V14.00,2013-01-29 15:04:00,
2013-01-29 10:09:00,41.2,40.7,28.82,SSW,197,4.0,4.9,98,0.00,,,0.00,VWS V14.00,2013-01-29 15:09:00,
2013-01-29 10:14:00,41.5,41.0,28.82,SSW,195,3.6,5.4,98,0.00,,,0.00,VWS V14.00,2013-01-29 15:14:00,
2013-01-29 10:19:00,41.7,41.2,28.82,SSE,163,2.7,5.8,98,0.00,,,0.00,VWS V14.00,2013-01-29 15:19:00,
2013-01-29 10:24:00,42.1,41.6,28.82,South,171,4.0,5.8,98,0.00,,,0.00,VWS V14.00,2013-01-29 15:24:00,
2013-01-29 10:29:00,42.3,41.7,28.82,South,184,2.2,5.8,98,0.00,,,0.00,VWS V14.00,2013-01-29 15:29:00,
2013-01-29 10:34:00,42.3,41.7,28.82,SSE,165,0.0,2.7,98,0.00,,,0.00,VWS V14.00,2013-01-29 15:34:00,
2013-01-29 10:39:00,42.8,42.3,28.82,SSE,168,2.2,3.1,98,0.00,,,0.00,VWS V14.00,2013-01-29 15:39:00,
2013-01-29 10:44:00,43.0,42.5,28.82,South,169,0.0,3.1,98,0.00,,,0.00,VWS V14.00,2013-01-29 15:44:00,
2013-01-29 10:49:00,43.2,42.6,28.82,SSW,198,0.0,4.0,98,0.00,,,0.00,VWS V14.00,2013-01-29 15:49:00,
2013-01-29 10:54:00,43.5,43.0,28.82,SE,137,0.0,5.8,98,0.00,,,0.00,VWS V14.00,2013-01-29 15:54:00,
2013-01-29 10:59:00,44.6,44.1,28.82,SSW,196,2.2,8.1,98,0.00,,,0.00,VWS V14.00,2013-01-29 15:59:00,
2013-01-29 11:04:00,45.1,44.6,28.82,South,185,0.0,5.8,98,0.00,,,0.00,VWS V14.00,2013-01-29 16:04:00,
2013-01-29 11:09:00,45.1,44.6,28.82,South,173,0.0,5.8,98,0.00,,,0.00,VWS V14.00,2013-01-29 16:09:00,
2013-01-29 11:14:00,45.3,44.8,28.82,South,177,2.2,5.8,98,0.00,,,0.00,VWS V14.00,2013-01-29 16:14:00,
2013-01-29 11:19:00,45.5,45.0,28.82,SSE,165,2.7,6.3,98,0.00,,,0.00,VWS V14.00,2013-01-29 16:19:00,
2013-01-29 11:24:00,45.9,45.3,28.82,SSW,202,0.0,6.3,98,0.00,,,0.00,VWS V14.00,2013-01-29 16:24:00,
2013-01-29 11:29:00,46.2,45.7,28.82,SW,215,2.7,6.3,98,0.00,,,0.00,VWS V14.00,2013-01-29 16:29:00,
2013-01-29 11:34:00,46.6,46.0,28.82,SSW,206,0.0,6.3,98,0.00,,,0.00,VWS V14.00,2013-01-29 16:34:00,
2013-01-29 11:39:00,46.8,46.2,28.82,SW,219,2.7,6.3,98,0.00,,,0.00,VWS V14.00,2013-01-29 16:39:00,
2013-01-29 11:44:00,46.9,46.4,28.82,South,182,3.6,6.3,98,0.00,,,0.00,VWS V14.00,2013-01-29 16:44:00,
2013-01-29 11:49:00,47.3,46.8,28.82,SW,225,3.6,8.3,98,0.00,,,0.00,VWS V14.00,2013-01-29 16:49:00,
2013-01-29 11:54:00,47.7,47.1,28.82,SSW,212,0.0,8.3,98,0.00,,,0.00,VWS V14.00,2013-01-29 16:54:00,
2013-01-29 11:59:00,47.7,47.1,28.82,ESE,123,6.3,8.3,98,0.00,,,0.00,VWS V14.00,2013-01-29 16:59:00,
2013-01-29 12:04:00,48.0,47.5,28.82,SSW,198,2.2,5.8,98,0.00,,,0.00,VWS V14.00,2013-01-29 17:04:00,
2013-01-29 12:09:00,48.7,48.2,28.82,SSW,197,3.6,10.1,98,0.00,,,0.00,VWS V14.00,2013-01-29 17:09:00,
2013-01-29 12:15:00,49.1,48.6,28.82,South,183,3.1,10.5,98,0.00,,,0.00,VWS V14.00,2013-01-29 17:15:00,
2013-01-29 12:20:00,49.3,48.7,28.82,SW,214,4.0,10.5,98,0.00,,,0.00,VWS V14.00,2013-01-29 17:20:00,
2013-01-29 12:25:00,49.1,48.6,28.79,SSW,200,0.0,10.5,98,0.00,,,0.00,VWS V14.00,2013-01-29 17:25:00,
2013-01-29 12:30:00,49.1,48.6,28.79,SSW,211,3.6,10.5,98,0.00,,,0.00,VWS V14.00,2013-01-29 17:30:00,
2013-01-29 12:35:00,48.9,48.4,28.79,SSW,210,0.0,4.9,98,0.00,,,0.00,VWS V14.00,2013-01-29 17:35:00,
2013-01-29 12:40:00,49.1,48.6,28.79,SSE,165,3.1,6.3,98,0.00,,,0.00,VWS V14.00,2013-01-29 17:40:00,
2013-01-29 12:45:00,49.5,48.9,28.79,SSW,201,5.8,7.6,98,0.00,,,0.00,VWS V14.00,2013-01-29 17:45:00,
2013-01-29 12:50:00,49.6,49.1,28.79,South,182,4.9,10.1,98,0.00,,,0.00,VWS V14.00,2013-01-29 17:50:00,
2013-01-29 12:55:00,49.8,49.3,28.79,SSW,195,2.7,10.1,98,0.00,,,0.00,VWS V14.00,2013-01-29 17:55:00,
2013-01-29 13:00:00,49.8,49.3,28.79,SW,228,6.3,10.1,98,0.00,,,0.00,VWS V14.00,2013-01-29 18:00:00,
2013-01-29 13:05:00,49.8,49.3,28.79,South,176,6.3,8.1,98,0.00,,,0.00,VWS V14.00,2013-01-29 18:05:00,
2013-01-29 13:10:00,50.0,49.5,28.79,South,181,3.6,8.3,98,0.00,,,0.00,VWS V14.00,2013-01-29 18:10:00,
2013-01-29 13:15:00,49.8,49.3,28.79,SSW,205,3.6,8.3,98,0.00,,,0.00,VWS V14.00,2013-01-29 18:15:00,
2013-01-29 13:20:00,50.0,49.5,28.79,SSW,192,4.0,8.3,98,0.00,,,0.00,VWS V14.00,2013-01-29 18:20:00,
2013-01-29 13:25:00,50.2,49.6,28.79,South,191,3.1,8.3,98,0.00,,,0.00,VWS V14.00,2013-01-29 18:25:00,
2013-01-29 13:30:00,50.5,50.0,28.79,SW,214,8.7,8.7,98,0.00,,,0.00,VWS V14.00,2013-01-29 18:30:00,
2013-01-29 13:35:00,51.1,50.5,28.79,SSW,211,8.7,8.7,98,0.00,,,0.00,VWS V14.00,2013-01-29 18:35:00,
2013-01-29 13:40:00,51.4,50.9,28.76,South,178,11.0,11.0,98,0.00,,,0.00,VWS V14.00,2013-01-29 18:40:00,
2013-01-29 13:45:00,51.4,50.9,28.76,SW,218,6.3,11.0,98,0.00,,,0.00,VWS V14.00,2013-01-29 18:45:00,
2013-01-29 13:50:00,51.3,50.7,28.76,South,169,4.9,11.0,98,0.00,,,0.00,VWS V14.00,2013-01-29 18:50:00,
2013-01-29 13:55:00,51.4,50.9,28.76,SSW,211,5.4,11.0,98,0.00,,,0.00,VWS V14.00,2013-01-29 18:55:00,
2013-01-29 14:00:00,51.3,50.7,28.76,SSW,203,7.6,11.0,98,0.00,,,0.00,VWS V14.00,2013-01-29 19:00:00,
2013-01-29 14:05:00,51.3,50.7,28.76,SSW,207,5.4,8.1,98,0.00,,,0.00,VWS V14.00,2013-01-29 19:05:00,
2013-01-29 14:10:00,51.4,50.9,28.76,SSW,198,4.0,8.1,98,0.00,,,0.00,VWS V14.00,2013-01-29 19:10:00,
2013-01-29 14:15:00,51.6,51.1,28.76,South,174,5.4,10.1,98,0.00,,,0.00,VWS V14.00,2013-01-29 19:15:00,
2013-01-29 14:20:00,51.8,51.3,28.76,South,186,4.9,10.1,98,0.00,,,0.00,VWS V14.00,2013-01-29 19:20:00,
2013-01-29 14:25:00,52.0,51.4,28.76,SSW,205,5.4,10.1,98,0.00,,,0.00,VWS V14.00,2013-01-29 19:25:00,
2013-01-29 14:30:00,52.2,51.6,28.76,SSE,166,8.1,10.1,98,0.00,,,0.00,VWS V14.00,2013-01-29 19:30:00,
2013-01-29 14:35:00,52.5,52.0,28.76,South,184,5.8,9.6,98,0.00,,,0.00,VWS V14.00,2013-01-29 19:35:00,
2013-01-29 14:40:00,52.3,51.8,28.73,SW,229,5.8,9.6,98,0.00,,,0.00,VWS V14.00,2013-01-29 19:40:00,
2013-01-29 14:45:00,52.3,51.8,28.73,South,173,4.9,9.6,98,0.00,,,0.00,VWS V14.00,2013-01-29 19:45:00,
2013-01-29 14:50:00,52.3,51.8,28.73,South,184,6.3,9.6,98,0.00,,,0.00,VWS V14.00,2013-01-29 19:50:00,
2013-01-29 14:55:00,52.2,51.6,28.73,SW,226,8.1,9.6,98,0.00,,,0.00,VWS V14.00,2013-01-29 19:55:00,
2013-01-29 14:57:00,52.3,51.8,28.73,SSE,152,5.4,11.0,98,0.00,,,0.00,VWS V14.00,2013-01-29 19:57:00,
2013-01-29 15:02:00,52.3,51.8,28.73,SSW,210,5.8,5.8,98,0.00,,,0.00,VWS V14.00,2013-01-29 20:02:00,
2013-01-29 15:07:00,52.5,52.0,28.73,SW,217,6.3,8.1,98,0.00,,,0.00,VWS V14.00,2013-01-29 20:07:00,
2013-01-29 15:12:00,52.3,51.8,28.73,SSW,192,7.6,8.3,98,0.00,,,0.00,VWS V14.00,2013-01-29 20:12:00,
2013-01-29 15:17:00,52.5,52.0,28.73,ESE,122,8.1,10.5,98,0.00,,,0.00,VWS V14.00,2013-01-29 20:17:00,
2013-01-29 15:22:00,52.3,51.8,28.76,South,176,3.6,10.5,98,0.00,,,0.00,VWS V14.00,2013-01-29 20:22:00,
2013-01-29 15:27:00,52.5,52.0,28.76,SSW,210,3.1,10.5,98,0.00,,,0.00,VWS V14.00,2013-01-29 20:27:00,
2013-01-29 15:32:00,52.5,52.0,28.76,SSW,192,3.6,10.1,98,0.00,,,0.00,VWS V14.00,2013-01-29 20:32:00,
2013-01-29 15:37:00,52.7,52.2,28.76,SW,219,6.3,10.1,98,0.00,,,0.00,VWS V14.00,2013-01-29 20:37:00,
2013-01-29 15:42:00,52.5,52.0,28.76,South,189,4.0,10.1,98,0.00,,,0.00,VWS V14.00,2013-01-29 20:42:00,
2013-01-29 15:47:00,52.5,52.0,28.76,South,182,6.3,10.1,98,0.00,,,0.00,VWS V14.00,2013-01-29 20:47:00,
2013-01-29 15:52:00,52.5,52.0,28.76,South,191,2.7,10.1,98,0.00,,,0.00,VWS V14.00,2013-01-29 20:52:00,
2013-01-29 15:57:00,52.0,51.4,28.76,WSW,247,0.0,10.1,98,0.00,,,0.00,VWS V14.00,2013-01-29 20:57:00,
2013-01-29 16:02:00,52.2,51.6,28.76,SE,144,5.8,5.8,98,0.00,,,0.00,VWS V14.00,2013-01-29 21:02:00,
2013-01-29 16:07:00,52.3,51.8,28.73,SSE,163,2.2,6.3,98,0.00,,,0.00,VWS V14.00,2013-01-29 21:07:00,
2013-01-29 16:12:00,52.7,52.2,28.73,South,181,7.6,7.6,98,0.00,,,0.00,VWS V14.00,2013-01-29 21:12:00,
2013-01-29 16:17:00,53.1,52.5,28.73,South,184,6.3,8.3,98,0.00,,,0.00,VWS V14.00,2013-01-29 21:17:00,
2013-01-29 16:22:00,53.1,52.5,28.76,South,185,4.9,10.5,98,0.00,,,0.00,VWS V14.00,2013-01-29 21:22:00,
2013-01-29 16:27:00,53.2,52.7,28.76,SSW,209,3.6,10.5,98,0.00,,,0.00,VWS V14.00,2013-01-29 21:27:00,
2013-01-29 16:32:00,53.1,52.5,28.76,SSW,204,4.0,6.3,98,0.00,,,0.00,VWS V14.00,2013-01-29 21:32:00,
2013-01-29 16:37:00,53.1,52.5,28.76,South,177,4.0,9.6,98,0.00,,,0.00,VWS V14.00,2013-01-29 21:37:00,
2013-01-29 16:42:00,53.2,52.7,28.76,SSE,152,5.4,11.4,98,0.00,,,0.00,VWS V14.00,2013-01-29 21:42:00,
2013-01-29 16:47:00,53.1,52.5,28.76,West,268,3.6,11.4,98,0.00,,,0.00,VWS V14.00,2013-01-29 21:47:00,
2013-01-29 16:52:00,52.7,52.2,28.73,SSW,196,0.0,11.4,98,0.00,,,0.00,VWS V14.00,2013-01-29 21:52:00,
2013-01-29 16:57:00,52.7,52.2,28.73,South,169,4.0,11.4,98,0.00,,,0.00,VWS V14.00,2013-01-29 21:57:00,
2013-01-29 17:02:00,52.9,52.3,28.73,South,187,6.3,7.6,98,0.00,,,0.00,VWS V14.00,2013-01-29 22:02:00,
2013-01-29 17:07:00,53.1,52.5,28.73,SW,226,4.9,8.7,98,0.00,,,0.00,VWS V14.00,2013-01-29 22:07:00,
2013-01-29 17:12:00,53.2,52.7,28.73,SSE,153,4.0,8.7,98,0.00,,,0.00,VWS V14.00,2013-01-29 22:12:00,
2013-01-29 17:17:00,53.4,52.9,28.73,SSE,149,3.1,8.7,98,0.00,,,0.00,VWS V14.00,2013-01-29 22:17:00,
2013-01-29 17:22:00,53.4,52.9,28.73,SSE,150,8.1,8.7,98,0.00,,,0.00,VWS V14.00,2013-01-29 22:22:00,
2013-01-29 17:27:00,53.4,52.9,28.73,South,185,4.0,8.7,98,0.00,,,0.00,VWS V14.00,2013-01-29 22:27:00,
2013-01-29 17:32:00,53.4,52.9,28.73,SSW,200,7.2,8.7,98,0.00,,,0.00,VWS V14.00,2013-01-29 22:32:00,
2013-01-29 17:37:00,53.6,53.0,28.73,South,190,12.3,12.3,98,0.00,,,0.00,VWS V14.00,2013-01-29 22:37:00,
2013-01-29 17:42:00,53.6,53.0,28.73,SSW,193,7.6,12.3,98,0.00,,,0.00,VWS V14.00,2013-01-29 22:42:00,
2013-01-29 17:47:00,53.6,53.0,28.73,SW,218,11.0,12.3,98,0.00,,,0.00,VWS V14.00,2013-01-29 22:47:00,
2013-01-29 17:52:00,53.6,53.0,28.70,ESE,113,8.3,12.3,98,0.00,,,0.00,VWS V14.00,2013-01-29 22:52:00,
2013-01-29 17:57:00,53.8,53.2,28.70,South,185,8.3,13.2,98,0.00,,,0.00,VWS V14.00,2013-01-29 22:57:00,
2013-01-29 18:03:00,54.0,53.4,28.70,South,184,5.4,14.1,98,0.00,,,0.00,VWS V14.00,2013-01-29 23:03:00,
2013-01-29 18:08:00,54.0,53.4,28.73,SW,218,6.3,14.1,98,0.00,,,0.00,VWS V14.00,2013-01-29 23:08:00,
2013-01-29 18:13:00,54.0,53.4,28.73,SW,231,6.3,15.0,98,0.00,,,0.00,VWS V14.00,2013-01-29 23:13:00,
2013-01-29 18:18:00,54.0,53.4,28.73,SW,220,6.3,15.0,98,0.00,,,0.00,VWS V14.00,2013-01-29 23:18:00,
2013-01-29 18:23:00,54.0,53.4,28.73,SW,214,11.0,15.0,98,0.00,,,0.00,VWS V14.00,2013-01-29 23:23:00,
2013-01-29 18:28:00,53.8,53.2,28.73,SSW,207,3.1,15.0,98,0.00,,,0.00,VWS V14.00,2013-01-29 23:28:00,
2013-01-29 18:33:00,53.8,53.2,28.73,SW,217,6.3,10.1,98,0.00,,,0.00,VWS V14.00,2013-01-29 23:33:00,
2013-01-29 18:38:00,54.0,53.4,28.70,SW,220,10.1,10.1,98,0.00,,,0.00,VWS V14.00,2013-01-29 23:38:00,
2013-01-29 18:43:00,53.8,53.2,28.70,South,185,6.3,10.1,98,0.00,,,0.00,VWS V14.00,2013-01-29 23:43:00,
2013-01-29 18:48:00,53.8,53.2,28.70,South,186,4.9,11.0,98,0.00,,,0.00,VWS V14.00,2013-01-29 23:48:00,
2013-01-29 18:53:00,53.8,53.2,28.70,SSE,162,5.4,11.0,98,0.00,,,0.00,VWS V14.00,2013-01-29 23:53:00,
2013-01-29 18:58:00,53.8,53.2,28.70,South,169,8.7,11.0,98,0.00,,,0.00,VWS V14.00,2013-01-29 23:58:00,
2013-01-29 19:03:00,53.8,53.2,28.70,South,187,6.7,10.5,98,0.00,,,0.00,VWS V14.00,2013-01-30 00:03:00,
2013-01-29 19:08:00,53.8,53.2,28.70,South,181,3.1,10.5,98,0.00,,,0.00,VWS V14.00,2013-01-30 00:08:00,
2013-01-29 19:13:00,53.6,53.0,28.70,SSW,205,3.6,10.5,98,0.00,,,0.00,VWS V14.00,2013-01-30 00:13:00,
2013-01-29 19:18:00,53.6,53.0,28.70,SW,225,8.1,10.5,98,0.00,,,0.00,VWS V14.00,2013-01-30 00:18:00,
2013-01-29 19:23:00,53.4,52.9,28.70,SSW,210,10.1,10.5,98,0.00,,,0.00,VWS V14.00,2013-01-30 00:23:00,
2013-01-29 19:28:00,53.4,52.9,28.70,SW,219,6.3,10.5,98,0.00,,,0.00,VWS V14.00,2013-01-30 00:28:00,
2013-01-29 19:33:00,53.6,53.0,28.70,SSW,213,4.0,10.5,98,0.00,,,0.00,VWS V14.00,2013-01-30 00:33:00,
2013-01-29 19:38:00,53.6,53.0,28.70,SSW,196,6.3,10.5,98,0.00,,,0.00,VWS V14.00,2013-01-30 00:38:00,
2013-01-29 19:43:00,53.8,53.2,28.70,SSW,205,4.0,15.0,98,0.00,,,0.00,VWS V14.00,2013-01-30 00:43:00,
2013-01-29 19:48:00,53.8,53.2,28.70,South,189,5.4,15.0,98,0.00,,,0.00,VWS V14.00,2013-01-30 00:48:00,
2013-01-29 19:53:00,53.8,53.2,28.70,SSW,213,5.8,15.4,98,0.00,,,0.00,VWS V14.00,2013-01-30 00:53:00,
2013-01-29 19:58:00,53.8,53.2,28.70,South,177,10.5,15.4,98,0.00,,,0.00,VWS V14.00,2013-01-30 00:58:00,
2013-01-29 20:03:00,53.8,53.2,28.70,SSW,212,4.9,13.2,98,0.00,,,0.00,VWS V14.00,2013-01-30 01:03:00,
2013-01-29 20:08:00,53.8,53.2,28.67,South,187,11.9,13.2,98,0.00,,,0.00,VWS V14.00,2013-01-30 01:08:00,
2013-01-29 20:13:00,54.0,53.4,28.67,SSE,159,14.5,14.5,98,0.00,,,0.00,VWS V14.00,2013-01-30 01:13:00,
2013-01-29 20:18:00,54.0,53.4,28.67,SSW,207,10.5,17.4,98,0.00,,,0.00,VWS V14.00,2013-01-30 01:18:00,
2013-01-29 20:23:00,53.8,53.2,28.67,SSE,163,5.8,17.4,98,0.00,,,0.00,VWS V14.00,2013-01-30 01:23:00,
2013-01-29 20:28:00,53.8,53.2,28.67,SW,214,5.8,17.4,98,0.00,,,0.00,VWS V14.00,2013-01-30 01:28:00,
2013-01-29 20:33:00,53.8,53.2,28.67,SSW,195,12.3,12.3,98,0.00,,,0.00,VWS V14.00,2013-01-30 01:33:00,
2013-01-29 20:38:00,53.8,53.2,28.67,SSW,203,6.3,14.1,98,0.00,,,0.00,VWS V14.00,2013-01-30 01:38:00,
2013-01-29 20:43:00,53.8,53.2,28.67,SSE,151,8.3,14.1,98,0.00,,,0.00,VWS V14.00,2013-01-30 01:43:00,
2013-01-29 20:48:00,53.8,53.2,28.67,SSW,198,12.8,14.1,98,0.00,,,0.00,VWS V14.00,2013-01-30 01:48:00,
2013-01-29 20:53:00,53.6,53.0,28.64,SSW,203,5.8,14.5,98,0.00,,,0.00,VWS V14.00,2013-01-30 01:53:00,
2013-01-29 20:58:00,53.6,53.0,28.64,South,177,5.4,14.5,98,0.00,,,0.00,VWS V14.00,2013-01-30 01:58:00,
2013-01-29 21:03:00,53.6,53.0,28.64,SSE,154,13.2,13.2,98,0.00,,,0.00,VWS V14.00,2013-01-30 02:03:00,
2013-01-29 21:08:00,53.8,53.2,28.64,SE,139,5.8,13.2,98,0.00,,,0.00,VWS V14.00,2013-01-30 02:08:00,
2013-01-29 21:13:00,53.8,53.2,28.64,SW,218,4.0,13.2,98,0.00,,,0.00,VWS V14.00,2013-01-30 02:13:00,
2013-01-29 21:18:00,54.0,53.4,28.64,SE,140,12.3,16.8,98,0.00,,,0.00,VWS V14.00,2013-01-30 02:18:00,
2013-01-29 21:23:00,54.0,53.4,28.64,South,181,5.4,16.8,98,0.00,,,0.00,VWS V14.00,2013-01-30 02:23:00,
2013-01-29 21:28:00,54.0,53.4,28.64,SSE,150,7.2,16.8,98,0.00,,,0.00,VWS V14.00,2013-01-30 02:28:00,
2013-01-29 21:33:00,54.0,53.4,28.64,South,185,4.0,12.8,98,0.00,,,0.00,VWS V14.00,2013-01-30 02:33:00,
2013-01-29 21:38:00,54.0,53.4,28.61,WSW,242,15.0,15.0,98,0.00,,,0.00,VWS V14.00,2013-01-30 02:38:00,
2013-01-29 21:43:00,54.1,53.6,28.61,SSE,149,5.8,15.0,98,0.00,,,0.00,VWS V14.00,2013-01-30 02:43:00,
2013-01-29 21:48:00,54.1,53.6,28.61,South,173,5.8,15.0,98,0.00,,,0.00,VWS V14.00,2013-01-30 02:48:00,
2013-01-29 21:53:00,54.1,53.6,28.61,SE,142,8.7,15.0,98,0.00,,,0.00,VWS V14.00,2013-01-30 02:53:00,
2013-01-29 21:58:00,54.3,53.8,28.61,SSW,207,4.5,15.0,98,0.00,,,0.00,VWS V14.00,2013-01-30 02:58:00,
2013-01-29 22:03:00,54.3,53.8,28.61,South,173,6.3,9.6,98,0.00,,,0.00,VWS V14.00,2013-01-30 03:03:00,
2013-01-29 22:08:00,54.5,54.0,28.59,South,184,6.3,12.8,98,0.00,,,0.00,VWS V14.00,2013-01-30 03:08:00,
2013-01-29 22:13:00,54.5,54.0,28.59,South,173,7.6,12.8,98,0.00,,,0.00,VWS V14.00,2013-01-30 03:13:00,
2013-01-29 22:18:00,54.9,54.3,28.59,SSW,201,6.3,13.2,98,0.00,,,0.00,VWS V14.00,2013-01-30 03:18:00,
2013-01-29 22:23:00,55.0,54.5,28.59,South,178,6.3,13.2,98,0.00,,,0.00,VWS V14.00,2013-01-30 03:23:00,
2013-01-29 22:28:00,55.0,54.5,28.59,SSW,199,5.8,13.2,98,0.00,,,0.00,VWS V14.00,2013-01-30 03:28:00,
2013-01-29 22:33:00,55.2,54.7,28.59,South,182,8.1,14.5,98,0.00,,,0.00,VWS V14.00,2013-01-30 03:33:00,
2013-01-29 22:38:00,55.4,54.8,28.59,SW,220,4.0,14.5,98,0.00,,,0.00,VWS V14.00,2013-01-30 03:38:00,
2013-01-29 22:43:00,55.2,54.7,28.59,SSW,194,3.6,14.5,98,0.00,,,0.00,VWS V14.00,2013-01-30 03:43:00,
2013-01-29 22:48:00,55.0,54.5,28.59,SSE,148,10.1,14.5,98,0.00,,,0.00,VWS V14.00,2013-01-30 03:48:00,
2013-01-29 22:53:00,55.0,54.5,28.56,SSE,163,8.1,14.5,98,0.00,,,0.00,VWS V14.00,2013-01-30 03:53:00,
2013-01-29 22:58:00,55.0,54.5,28.56,SSW,210,4.9,14.5,98,0.00,,,0.00,VWS V14.00,2013-01-30 03:58:00,
2013-01-29 23:03:00,55.0,54.5,28.56,SE,145,7.6,11.0,98,0.00,,,0.00,VWS V14.00,2013-01-30 04:03:00,
2013-01-29 23:08:00,55.2,54.7,28.56,SSE,159,7.6,12.3,98,0.00,,,0.00,VWS V14.00,2013-01-30 04:08:00,
2013-01-29 23:13:00,55.2,54.7,28.56,SSW,194,5.8,12.8,98,0.00,,,0.00,VWS V14.00,2013-01-30 04:13:00,
2013-01-29 23:18:00,55.2,54.7,28.56,SSW,197,11.0,12.8,98,0.00,,,0.00,VWS V14.00,2013-01-30 04:18:00,
2013-01-29 23:23:00,55.4,54.8,28.53,SSW,201,8.1,15.0,98,0.00,,,0.00,VWS V14.00,2013-01-30 04:23:00,
2013-01-29 23:28:00,55.8,55.2,28.53,SSW,196,8.7,15.0,98,0.00,,,0.00,VWS V14.00,2013-01-30 04:28:00,
2013-01-29 23:33:00,55.9,55.4,28.53,SW,219,3.6,13.6,98,0.00,,,0.00,VWS V14.00,2013-01-30 04:33:00,
2013-01-29 23:38:00,55.9,55.4,28.53,SSE,149,7.2,14.1,98,0.00,,,0.00,VWS V14.00,2013-01-30 04:38:00,
2013-01-29 23:43:00,56.1,55.6,28.53,South,186,14.5,15.4,98,0.00,,,0.00,VWS V14.00,2013-01-30 04:43:00,
2013-01-29 23:48:00,55.9,55.4,28.53,SSW,212,8.7,15.4,98,0.00,,,0.00,VWS V14.00,2013-01-30 04:48:00,
2013-01-29 23:53:00,56.3,55.8,28.50,SSW,193,10.5,17.0,98,0.00,,,0.00,VWS V14.00,2013-01-30 04:53:00,
2013-01-29 23:58:00,56.3,55.8,28.50,South,186,8.3,17.0,98,0.00,,,0.00,VWS V14.00,2013-01-30 04:58:00,